weather.gov     
National Weather Service

Terminal Aerodrome Forecast
NWS Homepage
This page is being discontinued on March 12, 2014.
The same data is available at this site. Please update your bookmarks.
Thank you, and we apologize for the inconvenience.
Please send an email to SR-SRH.Webmaster@noaa.gov with any concerns.


Current Version
Previous Version:    01  02  03  04  05  06  07  08  09  10  11  12  13  14  15  16  17  18  19  20  21  22  23  24  25  26  27  28  29  
[Printable]
781
FTUS43 KMPX 301100
TAFRNH
TAF
KRNH 301125Z 3012/3112 VRB02KT P6SM VCSH SCT035 BKN060
     FM301700 33006KT P6SM SCT025 OVC050
     FM302000 33012G18KT P6SM BKN025 OVC040
     FM302300 33016G26KT P6SM SCT025 BKN035
     FM310600 33014KT P6SM SKC=


U.S. Dept. of Commerce
NOAA National Weather Service
1325 East West Highway
Silver Spring, MD 20910
E-mail: w-nws.webmaster@noaa.gov
Page last modified: May 16, 2007
NATIONAL WEATHER SERVICE: for Safety, for Work, for Fun - FOR LIFE